• In Netherlands
  • List of Countries
  • For 7 days
  • Water Temperature
  • Satellite Maps
  • Weather Map
  • Weather Widgets
  • user-avatar
    Login

    Hourly Weather Sydney

    Today, 28 February, Tuesday

    Time Temperature Precipitation Wind Pressure Humidity
    00:00 +20°C° 0.4 mm 2 mps 766 mmHg 92%
    01:00 +20°C° 0.4 mm 2 mps 765 mmHg 93%
    02:00 +19°C° 0.2 mm 2 mps 765 mmHg 94%
    03:00 +19°C° 0.2 mm 2 mps 765 mmHg 95%
    04:00 +19°C° 0 mm 3 mps 765 mmHg 95%
    05:00 +20°C° 0.2 mm 3 mps 765 mmHg 93%
    06:00 +20°C° 0.2 mm 3 mps 765 mmHg 91%
    07:00 +21°C° 0.2 mm 3 mps 765 mmHg 89%
    08:00 +24°C° 0.4 mm 3 mps 766 mmHg 83%
    09:00 +25°C° 0.4 mm 3 mps 766 mmHg 76%
    10:00 +27°C° 0 mm 4 mps 766 mmHg 66%
    11:00 +28°C° 0.8 mm 4 mps 765 mmHg 64%
    12:00 +28°C° 0.8 mm 4 mps 765 mmHg 62%
    13:00 +28°C° 0.8 mm 4 mps 765 mmHg 60%
    14:00 +28°C° 0.3 mm 5 mps 764 mmHg 61%
    15:00 +28°C° 0.3 mm 5 mps 764 mmHg 62%
    16:00 +27°C° 0 mm 4 mps 764 mmHg 66%
    17:00 +26°C° 0.1 mm 4 mps 765 mmHg 73%
    18:00 +24°C° 0.1 mm 3 mps 765 mmHg 81%
    19:00 +21°C° 0.1 mm 3 mps 765 mmHg 89%
    20:00 +21°C° 0.1 mm 4 mps 765 mmHg 90%
    21:00 +21°C° 0.1 mm 4 mps 765 mmHg 92%
    22:00 +21°C° 0.1 mm 4 mps 765 mmHg 94%
    23:00 +21°C° 0.5 mm 4 mps 765 mmHg 94%

    Tomorrow, 1 March, Wednesday

    Time Temperature Precipitation Wind Pressure Humidity
    00:00 +20°C° 0.5 mm 4 mps 765 mmHg 95%
    01:00 +20°C° 0.5 mm 4 mps 764 mmHg 96%
    02:00 +20°C° 1.3 mm 4 mps 764 mmHg 96%
    03:00 +20°C° 1.3 mm 4 mps 764 mmHg 97%
    04:00 +20°C° 1.3 mm 4 mps 764 mmHg 97%
    05:00 +21°C° 1 mm 4 mps 764 mmHg 95%
    06:00 +21°C° 1 mm 4 mps 764 mmHg 93%
    07:00 +22°C° 1 mm 3 mps 764 mmHg 92%
    08:00 +24°C° 0.9 mm 3 mps 764 mmHg 85%
    09:00 +25°C° 0.9 mm 3 mps 764 mmHg 79%
    10:00 +27°C° 0.9 mm 3 mps 764 mmHg 73%
    11:00 +27°C° 0.7 mm 3 mps 764 mmHg 70%
    12:00 +28°C° 0.7 mm 4 mps 763 mmHg 67%
    13:00 +28°C° 0.7 mm 4 mps 763 mmHg 64%
    14:00 +28°C° 0.2 mm 4 mps 763 mmHg 64%
    15:00 +28°C° 0.2 mm 4 mps 763 mmHg 63%
    16:00 +28°C° 0.2 mm 4 mps 762 mmHg 63%
    17:00 +26°C° 0.1 mm 4 mps 763 mmHg 71%
    18:00 +25°C° 0.1 mm 3 mps 763 mmHg 79%
    19:00 +22°C° 0.1 mm 3 mps 763 mmHg 87%
    20:00 +21°C° 0.2 mm 2 mps 763 mmHg 90%
    21:00 +21°C° 0.2 mm 2 mps 764 mmHg 92%
    22:00 +21°C° 0.2 mm 2 mps 764 mmHg 95%
    23:00 +20°C° 0.1 mm 2 mps 763 mmHg 95%

    Day after tomorrow, 2 March, Thursday

    Time Temperature Precipitation Wind Pressure Humidity
    00:00 +20°C° 0.1 mm 2 mps 763 mmHg 95%
    01:00 +20°C° 0.1 mm 2 mps 763 mmHg 95%
    02:00 +21°C° 0 mm 1 mps 763 mmHg 95%
    03:00 +21°C° 0 mm 1 mps 762 mmHg 95%
    04:00 +21°C° 0 mm 1 mps 762 mmHg 95%
    05:00 +21°C° 0 mm 1 mps 762 mmHg 93%
    06:00 +21°C° 0 mm 2 mps 763 mmHg 91%
    07:00 +21°C° 0 mm 2 mps 763 mmHg 89%
    08:00 +24°C° 0.2 mm 2 mps 763 mmHg 81%
    09:00 +27°C° 0.2 mm 2 mps 763 mmHg 73%
    10:00 +29°C° 0.2 mm 1 mps 763 mmHg 65%
    11:00 +29°C° 0.3 mm 2 mps 762 mmHg 64%
    12:00 +29°C° 0.3 mm 2 mps 762 mmHg 64%
    13:00 +29°C° 0.3 mm 3 mps 761 mmHg 64%
    14:00 +29°C° 0.4 mm 3 mps 761 mmHg 66%
    15:00 +29°C° 0.4 mm 3 mps 761 mmHg 67%
    16:00 +28°C° 0.4 mm 3 mps 761 mmHg 69%
    17:00 +27°C° 0.6 mm 3 mps 761 mmHg 77%
    18:00 +25°C° 0.6 mm 2 mps 761 mmHg 85%
    19:00 +24°C° 0.6 mm 2 mps 762 mmHg 93%
    20:00 +23°C° 0.4 mm 2 mps 762 mmHg 94%
    21:00 +23°C° 0.4 mm 1 mps 762 mmHg 96%
    22:00 +22°C° 0.4 mm 1 mps 762 mmHg 97%
    23:00 +22°C° 0.2 mm 1 mps 762 mmHg 97%

    3 March, Friday

    Time Temperature Precipitation Wind Pressure Humidity
    00:00 +22°C° 0.2 mm 1 mps 761 mmHg 98%
    01:00 +22°C° 0.2 mm 1 mps 761 mmHg 98%
    02:00 +22°C° 0.2 mm 1 mps 761 mmHg 98%
    03:00 +21°C° 0.2 mm 2 mps 761 mmHg 98%
    04:00 +21°C° 0.2 mm 2 mps 761 mmHg 98%
    05:00 +21°C° 0.6 mm 3 mps 761 mmHg 97%
    06:00 +21°C° 0.6 mm 3 mps 762 mmHg 96%
    07:00 +21°C° 0.6 mm 4 mps 762 mmHg 95%
    08:00 +23°C° 0.7 mm 4 mps 762 mmHg 88%
    09:00 +25°C° 0.7 mm 4 mps 762 mmHg 81%
    10:00 +27°C° 0.7 mm 4 mps 763 mmHg 74%
    11:00 +27°C° 0.9 mm 5 mps 762 mmHg 73%
    12:00 +27°C° 0.9 mm 5 mps 762 mmHg 72%
    13:00 +28°C° 0.9 mm 5 mps 761 mmHg 71%
    14:00 +27°C° 0.5 mm 5 mps 761 mmHg 72%
    15:00 +27°C° 0.5 mm 5 mps 761 mmHg 73%
    16:00 +27°C° 0.5 mm 5 mps 761 mmHg 75%
    17:00 +26°C° 0.4 mm 5 mps 761 mmHg 79%
    18:00 +23°C° 0.4 mm 4 mps 762 mmHg 83%
    19:00 +22°C° 0.4 mm 4 mps 762 mmHg 88%
    20:00 +22°C° 0.3 mm 4 mps 762 mmHg 89%
    21:00 +21°C° 0.3 mm 3 mps 762 mmHg 90%
    22:00 +21°C° 0.3 mm 3 mps 763 mmHg 92%
    23:00 +21°C° 0.1 mm 3 mps 762 mmHg 93%

    4 March, Saturday

    Time Temperature Precipitation Wind Pressure Humidity
    00:00 +20°C° 0.1 mm 3 mps 762 mmHg 93%
    01:00 +20°C° 0.1 mm 3 mps 761 mmHg 94%
    02:00 +20°C° 0.1 mm 3 mps 761 mmHg 94%
    03:00 +20°C° 0.1 mm 3 mps 761 mmHg 95%
    04:00 +19°C° 0.1 mm 3 mps 761 mmHg 95%
    05:00 +20°C° 0.3 mm 3 mps 761 mmHg 94%
    06:00 +20°C° 0.3 mm 3 mps 762 mmHg 92%
    07:00 +21°C° 0.3 mm 3 mps 762 mmHg 90%
    08:00 +24°C° 0.2 mm 3 mps 762 mmHg 81%
    09:00 +26°C° 0.2 mm 3 mps 762 mmHg 72%
    10:00 +28°C° 0.2 mm 2 mps 762 mmHg 63%
    11:00 +28°C° 0.3 mm 2 mps 762 mmHg 64%
    12:00 +28°C° 0.3 mm 3 mps 761 mmHg 66%
    13:00 +28°C° 0.3 mm 3 mps 760 mmHg 67%
    14:00 +28°C° 0.5 mm 3 mps 760 mmHg 71%
    15:00 +27°C° 0.5 mm 3 mps 760 mmHg 75%
    16:00 +26°C° 0.5 mm 4 mps 759 mmHg 79%
    17:00 +25°C° 1.2 mm 3 mps 760 mmHg 84%
    18:00 +24°C° 1.2 mm 3 mps 760 mmHg 89%
    19:00 +21°C° 1.2 mm 3 mps 760 mmHg 94%
    20:00 +21°C° 1.6 mm 3 mps 760 mmHg 95%
    21:00 +21°C° 1.6 mm 3 mps 760 mmHg 96%
    22:00 +21°C° 1.6 mm 3 mps 760 mmHg 97%
    23:00 +20°C° 0.4 mm 3 mps 760 mmHg 97%

    5 March, Sunday

    Time Temperature Precipitation Wind Pressure Humidity
    00:00 +20°C° 0.4 mm 3 mps 760 mmHg 97%
    01:00 +20°C° 0.4 mm 4 mps 759 mmHg 97%
    02:00 +20°C° 0.7 mm 3 mps 759 mmHg 97%
    03:00 +19°C° 0.7 mm 3 mps 758 mmHg 97%
    04:00 +19°C° 0.7 mm 3 mps 758 mmHg 98%
    05:00 +19°C° 0.8 mm 4 mps 758 mmHg 96%
    06:00 +20°C° 0.8 mm 4 mps 759 mmHg 95%
    07:00 +20°C° 0.8 mm 4 mps 759 mmHg 93%
    08:00 +22°C° 0.7 mm 4 mps 759 mmHg 82%
    09:00 +25°C° 0.7 mm 4 mps 759 mmHg 71%
    10:00 +27°C° 0.7 mm 4 mps 759 mmHg 60%
    11:00 +28°C° 0.6 mm 4 mps 758 mmHg 58%
    12:00 +29°C° 0.6 mm 4 mps 758 mmHg 56%
    13:00 +29°C° 0.6 mm 5 mps 757 mmHg 54%
    14:00 +28°C° 0.7 mm 5 mps 757 mmHg 60%
    15:00 +28°C° 0.7 mm 5 mps 757 mmHg 65%
    16:00 +27°C° 0.7 mm 5 mps 757 mmHg 71%
    17:00 +26°C° 0.5 mm 5 mps 757 mmHg 76%
    18:00 +23°C° 0.5 mm 6 mps 758 mmHg 80%
    19:00 +22°C° 0.5 mm 6 mps 758 mmHg 85%
    20:00 +21°C° 0.1 mm 6 mps 759 mmHg 86%
    21:00 +21°C° 0.1 mm 6 mps 759 mmHg 88%
    22:00 +21°C° 0.1 mm 6 mps 759 mmHg 89%
    23:00 +21°C° 0.1 mm 7 mps 759 mmHg 87%
    Show more